Regional Weather Roundup
Issued by NWS

Home | Current Version | Previous Version | Graphics & Text | Print | Product List | Glossary On
Versions: 1 2 3 4 5 6 7 8 9 10 11 12 13 14 15 16 17 18 19 20 21 22 23 24 25 26 27 28 29 30 31 32 33 34 35 36 37 38 39 40 41 42 43 44 45 46 47 48 49 50
000
ASUS43 KOAX 051702
RWRNE

WEATHER ROUNDUP FOR NEBRASKA
NATIONAL WEATHER SERVICE OMAHA NE
1100 AM CST THU MAR 05 2015

NOTES: SATELLITE DATA IS BEING USED TO AUGMENT CLOUD COVER ABOVE
       12000 FEET.
       "FAIR" INDICATES FEW OR NO CLOUDS BELOW 12,000 FEET WITH NO
       SIGNIFICANT WEATHER AND/OR OBSTRUCTIONS TO VISIBILITY.

  * THESE STATIONS DO NOT REPORT WEATHER SUCH AS RAIN...SNOW OR FOG.

NEZ001>004-019>022-054>056-051800-
NEBRASKA PANHANDLE

CITY           SKY/WX    TMP DP  RH WIND       PRES   REMARKS
SCOTTSBLUFF    MOSUNNY   32  15  49 NW12      30.21F WCI  23
ALLIANCE       MOSUNNY   37  11  34 W15       30.18S WCI  28
CHADRON        PTSUNNY   24  10  55 W9        30.21R WCI  14
SIDNEY         SUNNY     37  14  38 W15       30.23R WCI  28
$$

NEZ057>060-069>072-079>082-051800-
SOUTHWEST NEBRASKA

CITY           SKY/WX    TMP DP  RH WIND       PRES   REMARKS
NORTH PLATTE   SUNNY     27   9  46 SW10      30.30F WCI  17
IMPERIAL         N/A     35  10  35 SW13      30.28F WCI  26
MCCOOK         SUNNY     28  14  55 S6        30.35F WCI  22
$$

NEZ005>010-023>029-035>040-094-051800-
NORTH CENTRAL NEBRASKA

CITY           SKY/WX    TMP DP  RH WIND       PRES   REMARKS
VALENTINE      SUNNY     25   6  44 SW7       30.23F WCI  17
BROKEN BOW     SUNNY     23   5  46 S16G25    30.33F WCI  10
ORD            SUNNY     22   2  42 SW18      30.37F WCI   7
$$

NEZ041-046>049-061>064-073>077-083>087-051800-
SOUTH CENTRAL NEBRASKA

CITY           SKY/WX    TMP DP  RH WIND       PRES   REMARKS
GRAND ISLAND     N/A    N/A N/A N/A MISG      30.45F
HASTINGS       SUNNY     22   3  44 S13       30.43F WCI  10
KEARNEY *      SUNNY     23   7  50 S14G21    30.40F WCI  11
$$

NEZ011>018-030>034-042>045-051800-
NORTHEAST NEBRASKA

CITY           SKY/WX    TMP DP  RH WIND       PRES   REMARKS
NORFOLK        SUNNY     21   2  43 S13       30.44F WCI   9
COLUMBUS *     SUNNY     21   0  39 S8        30.49F WCI  12
TEKAMAH        MIX PCPN  18   1  47 S9        30.54F WCI   7
$$

NEZ050>053-065>068-078-088>093-051800-
SOUTHEAST NEBRASKA

CITY           SKY/WX    TMP DP  RH WIND       PRES   REMARKS
LINCOLN        SUNNY     19   1  45 VRB5      30.54F WCI  12
OMAHA EPPLEY   SUNNY     16   0  49 S8        30.56F WCI   5
FALLS CITY     SUNNY     19  -2  39 NE3       30.58F
$$

NEZ044-045-051>053-067-051800-
OMAHA AREA

CITY           SKY/WX    TMP DP  RH WIND       PRES   REMARKS
OMAHA EPPLEY   SUNNY     16   0  49 S8        30.56F WCI   5
OFFUTT AFB     SUNNY     17   0  48 VRB3      30.55F
$$


USA.gov is the U.S. government's official web portal to all federal, state and local government web resources and services.